Terug naar catalogus

STARLINK-35341

ActiefCommunicatieVLEO
NORAD 66027·PAYLOAD·🇺🇸 United States

Gelanceerd Oct 16, 2025 vanaf Cape Canaveral Space Force Station

Loading…

Volgende Passages (komende 24 uur)

TLE

VersSource: CelesTrak SupGP

Epoch: Sep 15, 2026, 03:18 UTC

1 66027C 25232Y   26258.13798611  .00025129  00000+0  74215-3 0  2582
2 66027  53.1578 300.8706 0001079  96.3677 280.3504 15.34390875    19

Volg STARLINK-35341 in realtime met AllMySat

Download on the App Store